Year,Month,Day,Hour,Minute,Value (Times are PST for windspeed in km/hr)
2016,03,01,00,00,46.30
2016,03,01,00,01,44.40
2016,03,01,00,02,43.50
2016,03,01,00,03,46.30
2016,03,01,00,04,47.80
2016,03,01,00,05,42.60
2016,03,01,00,06,43.70
2016,03,01,00,07,41.30
2016,03,01,00,09,40.90
2016,03,01,00,10,45.00
2016,03,01,00,12,42.00
2016,03,01,00,13,44.80
2016,03,01,00,14,42.40
2016,03,01,00,16,46.70
2016,03,01,00,17,42.00
2016,03,01,00,18,40.00
2016,03,01,00,19,42.00
2016,03,01,00,21,39.80
2016,03,01,00,22,39.10
2016,03,01,00,23,40.60
2016,03,01,00,24,45.90
2016,03,01,00,26,42.40
2016,03,01,00,27,39.60
2016,03,01,00,28,41.90
2016,03,01,00,29,40.60
2016,03,01,00,31,42.20
2016,03,01,00,32,42.80
2016,03,01,00,33,39.30
2016,03,01,00,34,39.30
2016,03,01,00,36,40.90
2016,03,01,00,37,39.40
2016,03,01,00,38,40.00
2016,03,01,00,39,38.70
2016,03,01,00,41,38.00
2016,03,01,00,42,36.30
2016,03,01,00,43,35.20
2016,03,01,00,44,37.20
2016,03,01,00,46,40.60
2016,03,01,00,47,40.40
2016,03,01,00,48,40.20
2016,03,01,00,49,40.60
2016,03,01,00,51,42.40
2016,03,01,00,52,43.50
2016,03,01,00,53,43.50
2016,03,01,00,54,43.20
2016,03,01,00,56,43.00
2016,03,01,00,57,42.80
2016,03,01,00,58,40.00
2016,03,01,00,59,44.40
2016,03,01,01,01,42.20
2016,03,01,01,02,39.40
2016,03,01,01,03,43.00
2016,03,01,01,04,38.50
2016,03,01,01,06,42.00
2016,03,01,01,07,43.30
2016,03,01,01,08,40.40
2016,03,01,01,09,42.00
2016,03,01,01,11,41.30
2016,03,01,01,12,42.00
2016,03,01,01,13,36.10
2016,03,01,01,14,40.00
2016,03,01,01,16,42.40
2016,03,01,01,17,35.60
2016,03,01,01,18,38.00
2016,03,01,01,19,40.40
2016,03,01,01,21,36.30
2016,03,01,01,22,39.10
2016,03,01,01,23,40.90
2016,03,01,01,24,35.40
2016,03,01,01,25,35.00
2016,03,01,01,26,39.60
2016,03,01,01,27,39.60
2016,03,01,01,28,36.90
2016,03,01,01,29,37.00
2016,03,01,01,30,36.50
2016,03,01,01,31,36.30
2016,03,01,01,32,36.10
2016,03,01,01,33,37.80
2016,03,01,01,34,32.20
2016,03,01,01,36,37.60
2016,03,01,01,37,35.00
2016,03,01,01,38,34.60
2016,03,01,01,39,36.50
2016,03,01,01,40,33.50
2016,03,01,01,41,31.90
2016,03,01,01,42,36.90
2016,03,01,01,43,36.30
2016,03,01,01,44,33.70
2016,03,01,01,45,40.20
2016,03,01,01,46,39.40
2016,03,01,01,47,34.10
2016,03,01,01,48,33.90
2016,03,01,01,49,35.70
2016,03,01,01,50,38.90
2016,03,01,01,51,35.90
2016,03,01,01,52,34.40
2016,03,01,01,53,35.20
2016,03,01,01,54,37.00
2016,03,01,01,55,34.80
2016,03,01,01,56,34.60
2016,03,01,01,57,38.70
2016,03,01,01,58,34.80
2016,03,01,01,59,33.00
2016,03,01,02,00,30.70
2016,03,01,02,01,34.30
2016,03,01,02,02,32.20
2016,03,01,02,03,34.60
2016,03,01,02,04,35.70
2016,03,01,02,05,35.90
2016,03,01,02,06,32.20
2016,03,01,02,07,38.30
2016,03,01,02,08,35.20
2016,03,01,02,09,39.60
2016,03,01,02,10,37.00
2016,03,01,02,11,35.70
2016,03,01,02,12,35.20
2016,03,01,02,13,36.70
2016,03,01,02,14,35.20
2016,03,01,02,15,37.20
2016,03,01,02,16,35.70
2016,03,01,02,17,37.20
2016,03,01,02,18,35.90
2016,03,01,02,19,35.90
2016,03,01,02,20,35.70
2016,03,01,02,21,38.70
2016,03,01,02,22,38.30
2016,03,01,02,23,38.30
2016,03,01,02,24,36.90
2016,03,01,02,25,36.70
2016,03,01,02,26,35.70
2016,03,01,02,27,34.80
2016,03,01,02,28,33.50
2016,03,01,02,29,36.50
2016,03,01,02,30,33.90
2016,03,01,02,31,36.70
2016,03,01,02,32,35.90
2016,03,01,02,33,33.30
2016,03,01,02,34,36.50
2016,03,01,02,35,36.70
2016,03,01,02,36,36.90
2016,03,01,02,37,38.00
2016,03,01,02,38,35.00
2016,03,01,02,39,33.50
2016,03,01,02,40,36.90
2016,03,01,02,41,37.40
2016,03,01,02,42,33.20
2016,03,01,02,43,36.70
2016,03,01,02,44,39.10
2016,03,01,02,45,40.60
2016,03,01,02,46,38.20
2016,03,01,02,47,38.30
2016,03,01,02,48,34.80
2016,03,01,02,49,33.00
2016,03,01,02,50,36.70
2016,03,01,02,51,34.40
2016,03,01,02,52,35.40
2016,03,01,02,54,28.50
2016,03,01,02,56,32.00
2016,03,01,02,57,31.50
2016,03,01,02,58,32.40
2016,03,01,02,59,34.30
2016,03,01,03,01,28.50
2016,03,01,03,02,31.50
2016,03,01,03,03,29.30
2016,03,01,03,04,29.40
2016,03,01,03,06,34.30
2016,03,01,03,07,32.40
2016,03,01,03,08,33.90
2016,03,01,03,09,31.90
2016,03,01,03,11,36.30
2016,03,01,03,12,33.50
2016,03,01,03,13,33.20
2016,03,01,03,14,31.30
2016,03,01,03,16,28.50
2016,03,01,03,17,29.80
2016,03,01,03,18,35.70
2016,03,01,03,19,31.10
2016,03,01,03,21,33.30
2016,03,01,03,22,31.70
2016,03,01,03,23,37.40
2016,03,01,03,24,34.10
2016,03,01,03,26,38.30
2016,03,01,03,27,33.50
2016,03,01,03,28,32.80
2016,03,01,03,29,37.00
2016,03,01,03,31,34.60
2016,03,01,03,32,36.10
2016,03,01,03,33,32.80
2016,03,01,03,34,33.70
2016,03,01,03,36,33.50
2016,03,01,03,37,36.30
2016,03,01,03,38,38.30
2016,03,01,03,39,37.20
2016,03,01,03,41,36.90
2016,03,01,03,42,35.00
2016,03,01,03,43,34.40
2016,03,01,03,44,36.70
2016,03,01,03,46,38.90
2016,03,01,03,47,38.00
2016,03,01,03,48,41.50
2016,03,01,03,49,33.00
2016,03,01,03,51,36.30
2016,03,01,03,52,38.30
2016,03,01,03,53,37.20
2016,03,01,03,54,34.80
2016,03,01,03,56,37.00
2016,03,01,03,57,40.00
2016,03,01,03,58,36.50
2016,03,01,03,59,38.70
2016,03,01,04,01,40.90
2016,03,01,04,02,38.30
2016,03,01,04,03,37.00
2016,03,01,04,04,33.70
2016,03,01,04,06,35.60
2016,03,01,04,07,35.90
2016,03,01,04,08,35.90
2016,03,01,04,09,35.90
2016,03,01,04,10,32.60
2016,03,01,04,11,33.30
2016,03,01,04,12,33.90
2016,03,01,04,13,36.90
2016,03,01,04,14,37.40
2016,03,01,04,15,35.00
2016,03,01,04,16,38.90
2016,03,01,04,17,39.30
2016,03,01,04,18,38.90
2016,03,01,04,19,33.90
2016,03,01,04,20,35.70
2016,03,01,04,21,33.00
2016,03,01,04,22,40.20
2016,03,01,04,23,35.00
2016,03,01,04,24,39.10
2016,03,01,04,25,38.20
2016,03,01,04,26,35.40
2016,03,01,04,27,33.90
2016,03,01,04,28,39.60
2016,03,01,04,29,34.10
2016,03,01,04,30,34.80
2016,03,01,04,31,35.20
2016,03,01,04,32,39.40
2016,03,01,04,33,39.10
2016,03,01,04,34,38.20
2016,03,01,04,35,38.70
2016,03,01,04,36,32.40
2016,03,01,04,37,39.30
2016,03,01,04,38,39.80
2016,03,01,04,39,35.00
2016,03,01,04,40,40.20
2016,03,01,04,41,37.20
2016,03,01,04,42,36.10
2016,03,01,04,43,38.50
2016,03,01,04,44,44.80
2016,03,01,04,45,41.10
2016,03,01,04,46,40.60
2016,03,01,04,47,44.40
2016,03,01,04,48,44.30
2016,03,01,04,49,39.60
2016,03,01,04,50,37.80
2016,03,01,04,51,37.80
2016,03,01,04,52,37.60
2016,03,01,04,53,33.50
2016,03,01,04,54,40.90
2016,03,01,04,55,38.70
2016,03,01,04,56,39.80
2016,03,01,04,57,37.80
2016,03,01,04,58,39.80
2016,03,01,04,59,37.40
2016,03,01,05,00,38.70
2016,03,01,05,01,38.70
2016,03,01,05,02,40.40
2016,03,01,05,03,42.00
2016,03,01,05,04,40.90
2016,03,01,05,05,36.30
2016,03,01,05,06,39.80
2016,03,01,05,07,42.20
2016,03,01,05,08,43.20
2016,03,01,05,09,40.40
2016,03,01,05,10,40.40
2016,03,01,05,11,37.20
2016,03,01,05,12,40.60
2016,03,01,05,13,35.90
2016,03,01,05,14,40.90
2016,03,01,05,15,45.20
2016,03,01,06,29,19.10
2016,03,01,06,31,20.20
2016,03,01,06,32,19.40
2016,03,01,06,33,21.10
2016,03,01,06,34,22.40
2016,03,01,06,36,23.30
2016,03,01,06,37,25.70
2016,03,01,06,38,19.60
2016,03,01,07,29,40.00
2016,03,01,07,31,45.00
2016,03,01,07,32,44.30
2016,03,01,07,33,45.00
2016,03,01,07,34,44.40
2016,03,01,07,36,47.00
2016,03,01,07,37,44.10
2016,03,01,07,38,41.10
2016,03,01,07,39,36.90
2016,03,01,07,41,35.20
2016,03,01,07,42,38.90
2016,03,01,07,43,37.40
2016,03,01,07,44,41.30
2016,03,01,07,46,42.20
2016,03,01,07,47,40.90
2016,03,01,07,48,44.30
2016,03,01,09,29,49.30
2016,03,01,09,31,51.70
2016,03,01,09,32,48.00
2016,03,01,09,33,48.50
2016,03,01,09,34,44.30
2016,03,01,09,36,46.50
2016,03,01,09,37,53.30
2016,03,01,09,38,49.40
2016,03,01,09,39,49.60
2016,03,01,09,41,53.00
2016,03,01,09,42,51.30
2016,03,01,09,43,50.20
2016,03,01,09,44,49.10
2016,03,01,09,46,49.60
2016,03,01,09,47,47.60
2016,03,01,09,48,53.30
2016,03,01,09,49,49.30
2016,03,01,09,51,55.60
2016,03,01,09,52,54.40
2016,03,01,09,53,49.80
2016,03,01,09,54,52.20
2016,03,01,09,56,51.90
2016,03,01,09,57,51.90
2016,03,01,09,58,52.60
2016,03,01,09,59,52.80
2016,03,01,10,01,50.20
2016,03,01,10,02,54.80
2016,03,01,10,03,51.90
2016,03,01,10,04,47.00
2016,03,01,10,06,51.50
2016,03,01,10,07,47.00
2016,03,01,10,08,50.70
2016,03,01,10,09,45.40
2016,03,01,10,11,44.80
2016,03,01,10,12,50.20
2016,03,01,10,13,49.40
2016,03,01,10,14,43.00
2016,03,01,10,15,46.50
2016,03,01,10,16,50.00
2016,03,01,10,17,48.50
2016,03,01,10,18,50.40
2016,03,01,10,19,51.50
2016,03,01,10,20,49.80
2016,03,01,10,21,54.30
2016,03,01,10,22,53.00
2016,03,01,10,23,50.60
2016,03,01,10,24,51.50
2016,03,01,10,25,52.20
2016,03,01,10,26,50.40
2016,03,01,10,27,52.00
2016,03,01,10,28,55.40
2016,03,01,10,29,48.30
2016,03,01,10,30,54.40
2016,03,01,10,31,56.10
2016,03,01,10,32,52.80
2016,03,01,10,33,56.30
2016,03,01,10,34,54.80
2016,03,01,10,35,51.10
2016,03,01,10,36,46.70
2016,03,01,10,37,52.20
2016,03,01,10,38,53.00
2016,03,01,10,39,47.00
2016,03,01,10,40,53.20
2016,03,01,10,41,47.60
2016,03,01,10,42,44.60
2016,03,01,10,43,43.70
2016,03,01,10,44,43.00
2016,03,01,10,45,45.00
2016,03,01,10,46,47.20
2016,03,01,10,47,45.90
2016,03,01,10,48,43.00
2016,03,01,11,29,51.30
2016,03,01,11,31,56.30
2016,03,01,11,32,57.00
2016,03,01,11,33,52.60
2016,03,01,11,34,56.70
2016,03,01,11,36,55.90
2016,03,01,11,37,67.00
2016,03,01,11,38,68.70
2016,03,01,11,39,64.40
2016,03,01,11,41,59.40
2016,03,01,11,42,60.00
2016,03,01,11,43,60.20
2016,03,01,11,44,53.90
2016,03,01,11,46,58.20
2016,03,01,11,47,56.50
2016,03,01,11,48,59.10
2016,03,01,11,49,51.90
2016,03,01,11,51,56.30
2016,03,01,11,52,53.30
2016,03,01,11,53,53.00
2016,03,01,11,54,60.40
2016,03,01,11,56,57.00
2016,03,01,11,57,54.40
2016,03,01,11,58,71.70
2016,03,01,11,59,70.00
2016,03,01,12,01,71.10
2016,03,01,12,02,69.30
2016,03,01,12,03,66.90
2016,03,01,12,04,62.40
2016,03,01,12,06,76.70
2016,03,01,12,07,73.50
2016,03,01,12,08,65.40
2016,03,01,12,09,61.30
2016,03,01,12,11,61.90
2016,03,01,12,12,65.90
2016,03,01,12,13,61.50
2016,03,01,12,14,62.00
2016,03,01,12,15,65.20
2016,03,01,12,16,60.60
2016,03,01,12,17,63.50
2016,03,01,12,18,64.60
2016,03,01,12,19,62.60
2016,03,01,12,20,68.70
2016,03,01,12,21,63.20
2016,03,01,12,22,66.30
2016,03,01,12,23,63.20
2016,03,01,12,24,65.40
2016,03,01,12,25,63.90
2016,03,01,12,26,68.70
2016,03,01,12,27,66.10
2016,03,01,12,28,59.60
2016,03,01,12,29,76.90
2016,03,01,12,30,67.40
2016,03,01,12,31,70.60
2016,03,01,12,32,62.00
2016,03,01,12,33,63.70
2016,03,01,12,34,72.40
2016,03,01,12,35,60.90
2016,03,01,12,36,63.20
2016,03,01,12,37,58.90
2016,03,01,12,38,71.50
2016,03,01,12,39,70.70
2016,03,01,12,40,69.40
2016,03,01,12,41,64.80
2016,03,01,12,42,64.30
2016,03,01,12,43,70.40
2016,03,01,12,44,70.70
2016,03,01,12,45,63.00
2016,03,01,12,46,70.20
2016,03,01,12,47,71.90
2016,03,01,12,48,60.90
2016,03,01,12,49,68.50
2016,03,01,12,50,58.50
2016,03,01,12,51,64.30
2016,03,01,12,52,68.00
2016,03,01,12,53,65.70
2016,03,01,12,54,71.30
2016,03,01,12,55,65.40
2016,03,01,12,56,63.30
2016,03,01,12,57,55.40
2016,03,01,12,58,63.70
2016,03,01,12,59,62.60
2016,03,01,13,00,63.30
2016,03,01,13,01,63.20
2016,03,01,13,02,55.40
2016,03,01,13,03,55.90
2016,03,01,13,04,56.90
2016,03,01,13,05,60.90
2016,03,01,13,06,70.90
2016,03,01,13,07,70.00
2016,03,01,13,08,65.40
2016,03,01,13,09,62.20
2016,03,01,13,10,56.70
2016,03,01,13,11,63.20
2016,03,01,13,12,65.40
2016,03,01,13,13,71.30
2016,03,01,13,14,59.30
2016,03,01,13,15,49.80
2016,03,01,13,16,54.60
2016,03,01,13,17,59.60
2016,03,01,13,18,53.50
2016,03,01,13,19,55.90
2016,03,01,13,20,64.80
2016,03,01,13,21,60.00
2016,03,01,13,22,56.50
2016,03,01,13,23,63.30
2016,03,01,13,24,70.00
2016,03,01,13,25,64.30
2016,03,01,13,27,30.70
2016,03,01,13,28,59.80
2016,03,01,13,29,73.50
2016,03,01,13,31,41.70
2016,03,01,13,32,44.80
2016,03,01,13,33,60.20
2016,03,01,13,34,59.10
2016,03,01,13,36,47.20
2016,03,01,13,37,55.40
2016,03,01,13,38,70.00
2016,03,01,13,39,62.20
2016,03,01,13,41,45.60
2016,03,01,13,42,53.30
2016,03,01,13,43,58.90
2016,03,01,13,44,59.80
2016,03,01,13,46,53.20
2016,03,01,13,47,50.60
2016,03,01,13,48,54.40
2016,03,01,13,49,57.40
2016,03,01,13,51,53.20
2016,03,01,13,52,48.70
2016,03,01,13,53,44.60
2016,03,01,13,54,42.60
2016,03,01,13,56,58.30
2016,03,01,13,57,55.40
2016,03,01,13,58,45.20
2016,03,01,13,59,38.70
2016,03,01,14,01,42.80
2016,03,01,14,02,59.60
2016,03,01,14,03,51.10
2016,03,01,14,04,51.30
2016,03,01,14,06,38.70
2016,03,01,14,07,44.80
2016,03,01,14,08,39.80
2016,03,01,14,09,43.30
2016,03,01,14,11,43.00
2016,03,01,14,12,50.70
2016,03,01,14,13,51.50
2016,03,01,14,14,43.90
2016,03,01,14,16,45.20
2016,03,01,14,17,41.50
2016,03,01,14,18,45.90
2016,03,01,14,19,35.00
2016,03,01,14,21,30.70
2016,03,01,14,22,33.00
2016,03,01,14,23,38.30
2016,03,01,14,24,31.10
2016,03,01,14,26,30.40
2016,03,01,14,27,30.40
2016,03,01,14,28,30.70
2016,03,01,14,29,30.40
2016,03,01,14,31,26.30
2016,03,01,14,32,24.30
2016,03,01,14,33,25.40
2016,03,01,14,34,25.00
2016,03,01,14,36,17.20
2016,03,01,14,37,17.80
2016,03,01,14,38,15.20
2016,03,01,14,39,6.90
2016,03,01,14,40,8.50
2016,03,01,14,41,9.60
2016,03,01,14,42,7.80
2016,03,01,14,43,7.20
2016,03,01,14,44,5.40
2016,03,01,14,45,2.60
2016,03,01,14,46,3.70
2016,03,01,14,47,5.60
2016,03,01,14,48,2.80
2016,03,01,14,49,5.40
2016,03,01,14,50,4.60
2016,03,01,14,51,4.40
2016,03,01,14,52,3.90
2016,03,01,14,53,6.30
2016,03,01,14,54,7.80
2016,03,01,14,55,7.20
2016,03,01,14,56,7.60
2016,03,01,14,57,6.30
2016,03,01,14,58,7.40
2016,03,01,14,59,7.20
2016,03,01,15,00,8.90
2016,03,01,15,01,8.90
2016,03,01,15,02,8.00
2016,03,01,15,03,7.20
2016,03,01,15,04,11.30
2016,03,01,15,05,6.90
2016,03,01,15,06,7.00
2016,03,01,15,07,6.70
2016,03,01,15,08,5.70
2016,03,01,15,09,5.60
2016,03,01,15,10,5.20
2016,03,01,15,11,6.70
2016,03,01,15,12,6.70
2016,03,01,15,13,5.60
2016,03,01,15,14,5.70
2016,03,01,15,15,3.10
2016,03,01,15,16,5.70
2016,03,01,15,17,5.60
2016,03,01,15,18,10.90
2016,03,01,15,19,10.90
2016,03,01,15,20,6.10
2016,03,01,15,21,10.70
2016,03,01,15,22,6.30
2016,03,01,15,23,8.50
2016,03,01,15,24,5.70
2016,03,01,15,25,3.90
2016,03,01,15,26,6.50
2016,03,01,15,27,2.60
2016,03,01,15,28,7.00
2016,03,01,15,29,10.20
2016,03,01,15,30,18.50
2016,03,01,15,31,14.40
2016,03,01,15,32,14.80
2016,03,01,15,33,11.30
2016,03,01,15,34,16.90
2016,03,01,15,35,8.00
2016,03,01,15,36,7.80
2016,03,01,15,37,6.30
2016,03,01,15,38,12.00
2016,03,01,15,39,13.70
2016,03,01,15,40,15.00
2016,03,01,15,41,15.60
2016,03,01,15,42,19.80
2016,03,01,15,43,20.90
2016,03,01,15,44,16.10
2016,03,01,15,45,16.90
2016,03,01,15,46,21.30
2016,03,01,15,47,15.70
2016,03,01,15,48,18.90
2016,03,01,15,49,16.30
2016,03,01,15,50,15.40
2016,03,01,15,51,15.40
2016,03,01,15,52,19.30
2016,03,01,15,53,21.90
2016,03,01,15,54,20.40
2016,03,01,15,55,14.80
2016,03,01,15,56,15.00
2016,03,01,15,57,15.20
2016,03,01,15,58,14.60
2016,03,01,15,59,6.90
2016,03,01,16,00,12.00
2016,03,01,16,01,14.40
2016,03,01,16,03,14.60
2016,03,01,16,04,13.70
2016,03,01,16,06,7.00
2016,03,01,16,07,13.30
2016,03,01,16,08,11.10
2016,03,01,16,09,16.70
2016,03,01,16,11,14.40
2016,03,01,16,12,20.90
2016,03,01,16,13,17.00
2016,03,01,16,14,14.40
2016,03,01,16,16,24.60
2016,03,01,16,17,19.60
2016,03,01,16,18,14.40
2016,03,01,16,19,22.00
2016,03,01,16,21,15.00
2016,03,01,16,22,26.70
2016,03,01,16,23,25.20
2016,03,01,16,24,21.30
2016,03,01,16,26,13.50
2016,03,01,16,27,10.60
2016,03,01,16,28,14.40
2016,03,01,16,29,11.50
2016,03,01,16,31,16.70
2016,03,01,16,32,15.40
2016,03,01,16,33,8.50
2016,03,01,16,34,13.00
2016,03,01,16,36,9.60
2016,03,01,16,37,13.30
2016,03,01,16,38,12.00
2016,03,01,16,39,11.10
2016,03,01,16,41,8.30
2016,03,01,16,42,12.00
2016,03,01,16,43,12.80
2016,03,01,16,44,17.20
2016,03,01,16,46,12.80
2016,03,01,16,47,12.60
2016,03,01,16,48,12.20
2016,03,01,16,49,13.30
2016,03,01,16,51,14.40
2016,03,01,16,52,11.90
2016,03,01,16,53,8.70
2016,03,01,16,54,14.80
2016,03,01,16,56,8.30
2016,03,01,16,57,12.20
2016,03,01,16,58,12.00
2016,03,01,16,59,10.90
2016,03,01,17,01,6.30
2016,03,01,17,02,9.10
2016,03,01,17,03,7.40
2016,03,01,17,04,9.40
2016,03,01,17,06,13.10
2016,03,01,17,07,14.10
2016,03,01,17,08,11.10
2016,03,01,17,09,13.50
2016,03,01,17,11,14.80
2016,03,01,17,12,11.70
2016,03,01,17,13,11.30
2016,03,01,17,14,13.10
2016,03,01,17,15,8.00
2016,03,01,17,16,11.30
2016,03,01,17,17,10.70
2016,03,01,17,18,10.60
2016,03,01,17,19,13.10
2016,03,01,17,20,10.00
2016,03,01,17,21,16.50
2016,03,01,17,22,13.50
2016,03,01,17,23,10.40
2016,03,01,17,24,10.20
2016,03,01,17,25,11.30
2016,03,01,17,26,16.50
2016,03,01,17,27,12.80
2016,03,01,17,28,12.60
2016,03,01,17,29,12.60
2016,03,01,17,30,13.30
2016,03,01,17,31,13.70
2016,03,01,17,32,12.40
2016,03,01,17,33,15.20
2016,03,01,17,34,14.40
2016,03,01,17,35,17.60
2016,03,01,17,36,18.10
2016,03,01,17,37,18.30
2016,03,01,17,38,20.60
2016,03,01,17,39,21.30
2016,03,01,17,40,22.00
2016,03,01,17,41,23.10
2016,03,01,17,42,21.50
2016,03,01,17,43,22.20
2016,03,01,17,44,20.60
2016,03,01,17,45,20.90
2016,03,01,17,46,20.00
2016,03,01,17,47,20.00
2016,03,01,17,48,20.70
2016,03,01,17,49,18.30
2016,03,01,17,50,19.10
2016,03,01,17,51,18.90
2016,03,01,17,52,18.90
2016,03,01,17,53,18.10
2016,03,01,17,54,18.50
2016,03,01,17,55,19.60
2016,03,01,17,56,20.20
2016,03,01,17,57,18.10
2016,03,01,17,58,16.30
2016,03,01,17,59,16.30
2016,03,01,18,00,13.50
2016,03,01,18,01,16.70
2016,03,01,18,02,16.30
2016,03,01,18,03,16.30
2016,03,01,18,04,12.20
2016,03,01,18,05,9.80
2016,03,01,18,06,13.00
2016,03,01,18,07,12.00
2016,03,01,18,08,16.70
2016,03,01,18,09,10.00
2016,03,01,18,10,7.00
2016,03,01,18,11,8.50
2016,03,01,18,12,11.10
2016,03,01,18,13,5.20
2016,03,01,18,14,7.60
2016,03,01,18,15,8.10
2016,03,01,18,16,7.60
2016,03,01,18,17,9.10
2016,03,01,18,18,7.60
2016,03,01,18,19,9.40
2016,03,01,18,20,9.80
2016,03,01,18,21,9.80
2016,03,01,18,22,8.30
2016,03,01,18,23,12.80
2016,03,01,18,24,8.90
2016,03,01,18,25,10.40
2016,03,01,18,26,13.70
2016,03,01,18,27,13.90
2016,03,01,18,28,11.30
2016,03,01,18,29,9.40
2016,03,01,18,30,8.70
2016,03,01,18,31,8.70
2016,03,01,18,32,8.30
2016,03,01,18,33,7.60
2016,03,01,18,34,5.90
2016,03,01,18,36,4.80
2016,03,01,18,37,3.90
2016,03,01,18,38,5.00
2016,03,01,18,39,4.60
2016,03,01,18,41,8.50
2016,03,01,18,42,8.70
2016,03,01,18,43,9.60
2016,03,01,18,44,9.30
2016,03,01,18,46,10.60
2016,03,01,18,47,8.00
2016,03,01,18,48,4.10
2016,03,01,18,49,4.80
2016,03,01,18,51,7.40
2016,03,01,18,52,7.60
2016,03,01,18,53,6.10
2016,03,01,18,54,7.60
2016,03,01,18,56,7.60
2016,03,01,18,57,8.50
2016,03,01,18,58,7.80
2016,03,01,18,59,7.20
2016,03,01,19,01,7.20
2016,03,01,19,02,8.00
2016,03,01,19,03,9.40
2016,03,01,19,04,10.60
2016,03,01,19,06,10.70
2016,03,01,19,07,11.70
2016,03,01,19,08,14.60
2016,03,01,19,09,11.90
2016,03,01,19,11,10.00
2016,03,01,19,12,9.60
2016,03,01,19,13,10.70
2016,03,01,19,14,11.10
2016,03,01,19,16,9.40
2016,03,01,19,17,9.60
2016,03,01,19,18,14.30
2016,03,01,19,19,16.10
2016,03,01,19,21,16.70
2016,03,01,19,22,17.80
2016,03,01,19,23,17.20
2016,03,01,19,24,18.00
2016,03,01,19,26,15.40
2016,03,01,19,27,16.70
2016,03,01,19,28,16.50
2016,03,01,19,29,18.70
2016,03,01,19,31,22.00
2016,03,01,19,32,23.30
2016,03,01,19,33,21.90
2016,03,01,19,34,20.90
2016,03,01,19,36,23.10
2016,03,01,19,37,24.80
2016,03,01,19,38,23.90
2016,03,01,19,39,27.00
2016,03,01,19,41,28.20
2016,03,01,19,42,29.10
2016,03,01,19,43,26.70
2016,03,01,19,44,28.90
2016,03,01,19,46,28.50
2016,03,01,19,47,28.30
2016,03,01,19,48,27.00
2016,03,01,19,49,24.10
2016,03,01,19,50,23.50
2016,03,01,19,51,25.60
2016,03,01,19,52,30.00
2016,03,01,19,53,31.50
2016,03,01,19,54,29.10
2016,03,01,19,55,30.70
2016,03,01,19,56,30.20
2016,03,01,19,57,30.00
2016,03,01,19,58,31.90
2016,03,01,19,59,29.60
2016,03,01,20,00,28.70
2016,03,01,20,01,27.40
2016,03,01,20,02,29.30
2016,03,01,20,03,28.50
2016,03,01,20,04,27.60
2016,03,01,20,05,25.20
2016,03,01,20,06,27.00
2016,03,01,20,07,33.30
2016,03,01,20,08,27.40
2016,03,01,20,09,23.70
2016,03,01,20,10,23.50
2016,03,01,20,11,25.00
2016,03,01,20,12,24.80
2016,03,01,20,13,25.00
2016,03,01,20,14,27.20
2016,03,01,20,15,24.40
2016,03,01,20,16,24.40
2016,03,01,20,17,24.40
2016,03,01,20,18,21.30
2016,03,01,20,19,21.50
2016,03,01,20,20,19.80
2016,03,01,20,21,22.20
2016,03,01,20,22,18.90
2016,03,01,20,23,19.40
2016,03,01,20,24,19.30
2016,03,01,20,25,19.10
2016,03,01,20,26,20.40
2016,03,01,20,27,18.30
2016,03,01,20,28,23.10
2016,03,01,20,29,20.40
2016,03,01,20,30,20.70
2016,03,01,20,31,20.60
2016,03,01,20,32,20.20
2016,03,01,20,33,20.40
2016,03,01,20,34,19.30
2016,03,01,20,35,20.40
2016,03,01,20,36,20.90
2016,03,01,20,37,20.90
2016,03,01,20,38,22.80
2016,03,01,20,39,23.30
2016,03,01,20,40,23.70
2016,03,01,20,41,22.40
2016,03,01,20,42,19.30
2016,03,01,20,43,18.00
2016,03,01,20,44,16.70
2016,03,01,20,45,18.50
2016,03,01,20,46,18.50
2016,03,01,20,47,22.20
2016,03,01,20,48,22.80
2016,03,01,20,49,25.40
2016,03,01,20,50,26.10
2016,03,01,20,51,28.20
2016,03,01,20,52,29.80
2016,03,01,20,53,26.30
2016,03,01,20,54,26.50
2016,03,01,20,55,28.90
2016,03,01,20,56,29.40
2016,03,01,20,57,29.10
2016,03,01,20,58,28.30
2016,03,01,20,59,24.60
2016,03,01,21,00,23.00
2016,03,01,21,01,24.60
2016,03,01,21,03,28.20
2016,03,01,21,04,28.00
2016,03,01,21,06,25.00
2016,03,01,21,07,25.40
2016,03,01,21,08,24.10
2016,03,01,21,09,22.60
2016,03,01,21,11,28.50
2016,03,01,21,12,32.20
2016,03,01,21,13,30.70
2016,03,01,21,14,27.80
2016,03,01,21,16,26.10
2016,03,01,21,17,33.30
2016,03,01,21,18,30.70
2016,03,01,21,19,31.10
2016,03,01,21,21,26.70
2016,03,01,21,22,31.10
2016,03,01,21,23,29.10
2016,03,01,21,24,29.10
2016,03,01,21,26,29.60
2016,03,01,21,27,31.50
2016,03,01,21,28,33.30
2016,03,01,21,29,30.40
2016,03,01,21,31,29.60
2016,03,01,21,32,27.00
2016,03,01,21,33,27.60
2016,03,01,21,34,30.00
2016,03,01,21,36,28.50
2016,03,01,21,37,33.90
2016,03,01,21,38,30.70
2016,03,01,21,39,33.20
2016,03,01,21,41,26.90
2016,03,01,21,42,30.00
2016,03,01,21,43,35.20
2016,03,01,21,44,35.00
2016,03,01,21,46,30.40
2016,03,01,21,47,33.00
2016,03,01,21,48,33.70
2016,03,01,21,49,37.00
2016,03,01,21,51,34.60
2016,03,01,21,52,33.50
2016,03,01,21,53,29.10
2016,03,01,21,54,33.90
2016,03,01,21,56,33.20
2016,03,01,21,57,35.60
2016,03,01,21,58,33.50
2016,03,01,21,59,31.90
2016,03,01,22,01,29.40
2016,03,01,22,02,30.00
2016,03,01,22,03,28.70
2016,03,01,22,04,32.20
2016,03,01,22,06,28.20
2016,03,01,22,07,32.00
2016,03,01,22,08,33.20
2016,03,01,22,09,33.30
2016,03,01,22,11,28.20
2016,03,01,22,12,32.20
2016,03,01,22,13,34.60
2016,03,01,22,14,32.80
2016,03,01,22,15,30.70
2016,03,01,22,16,30.70
2016,03,01,22,17,29.60
2016,03,01,22,18,30.00
2016,03,01,22,19,27.60
2016,03,01,22,20,26.70
2016,03,01,22,21,27.40
2016,03,01,22,22,28.90
2016,03,01,22,23,30.00
2016,03,01,22,24,27.00
2016,03,01,22,25,30.00
2016,03,01,22,26,28.30
2016,03,01,22,27,27.00
2016,03,01,22,28,28.70
2016,03,01,22,29,26.30
2016,03,01,22,30,28.90
2016,03,01,22,31,28.90
2016,03,01,22,32,23.70
2016,03,01,23,29,15.60
2016,03,01,23,31,15.20
2016,03,01,23,32,11.90
2016,03,01,23,33,10.20
2016,03,01,23,34,12.00
2016,03,01,23,36,10.40
2016,03,01,23,37,9.40
2016,03,01,23,38,11.10
2016,03,01,23,39,15.90
2016,03,01,23,41,14.60
2016,03,01,23,42,17.00
2016,03,01,23,43,17.40
2016,03,01,23,44,14.80
2016,03,01,23,46,21.30
2016,03,01,23,47,20.60
2016,03,01,23,48,20.90
2016,03,01,23,49,22.40
2016,03,01,23,51,21.50
2016,03,01,23,52,21.50
2016,03,01,23,53,23.10
2016,03,01,23,54,23.50
2016,03,01,23,56,24.80
2016,03,01,23,57,26.50
2016,03,01,23,58,26.10
2016,03,01,23,59,27.00
